Location: Unspecified
(0.0000°N, 0.0000°E)
Time: 08:35:39
(UTC+00:00)

Kosmos-1429 - Pass Details

Date: 25 February 2024
Orbit: 1466 x 1518 km, 74.0° (Epoch: 13 April)

Event Time Altitude Azimuth Distance (km) Brightness Sun altitude
Rises 18:55:18 0° 336° (NNW) 4,648 ? -10.4°
Reaches altitude 10° 18:58:21 10° 331° (NNW) 3,665 ? -11.2°
Maximum altitude 19:06:52 50° 259° (WSW) 1,848 ? -13.3°
Drops below altitude 10° 19:15:22 10° 185° (S) 3,643 ? -15.4°
Sets 19:18:25 0° 180° (S) 4,618 ? -16.1°
